Location: Cheyres
(46.8153°N, 6.7877°E)
Time: 00:50:23
(UTC+00:00)

Tiros 1 - Pass Details

Date: 27 May 2022
Orbit: 629 x 663 km, 48.4° (Epoch: 05 July)

Event Time Altitude Azimuth Distance (km) Brightness Sun altitude
Rises 02:58:10 0° 275° (W) 2,924 10.1 -7.3°
Reaches altitude 10° 03:00:29 10° 278° (W) 2,020 9.3 -7.0°
Maximum altitude 03:05:08 73° 3° (N) 673 7.4 -6.4°
Drops below altitude 10° 03:09:50 10° 88° (E) 2,040 10.6 -5.8°
Sets 03:12:11 0° 91° (E) 2,955 11.4 -5.5°
